Flag for France Weather past 2 weeks in Bastia, Corsica, France

Now
64 °F

Passing clouds.


Feels Like: 64 °F
Forecast: 65 / 75 °F
Wind: 3 mph from Southwest

Location: Bastia Airport

Current Time: Oct 1, 2014 at 12:17:03 AM

Latest Report: Oct 1, 2014 at 12:00 AM


Visibility: N/A

Pressure: 30.24 "Hg

Humidity: 88%

Dew point: 61 °F

Location of BastiaLocation

Historic Weather in Bastia — Graph

°F

Bastia temperature yesterday

Maximum temperature yesterday: 79 °F (at 2:00 PM)
Minimum temperature yesterday: 59 °F (at 6:00 AM)
Average temperature yesterday: 69 °F

Past Weeks' High & Low Weather Summary

 TemperatureHumidityPressure
High84 °F (Sep 20, 3:00 PM)94% (Sep 16, 12:46 AM)30.33 "Hg (Sep 16, 12:46 AM)
Low55 °F (Sep 29, 4:30 AM)27% (Sep 24, 12:30 PM)29.77 "Hg (Sep 22, 4:00 PM)
Average70 °F73%30.04 "Hg
* Reported Sep 15 10:00 PM — Sep 30 10:30 PM, Bastia, Weather by CustomWeather, © 2014

Note: Actual official high and low records may vary slightly from our data, if they occured in-between our weather recording intervals... More about our weather records

Advertising

Bastia weather history for previous 24 hours

 ConditionsComfort  
Time TempWeatherWind HumidityBarometerVisibility
10:30 PM
Sep 30
66 °FPassing clouds.2 mph88%30.24 "HgN/A
10:00 PM68 °FPassing clouds.2 mph88%30.24 "HgN/A
9:30 PM68 °FPassing clouds.1 mph83%30.24 "HgN/A
9:00 PM70 °FPassing clouds.2 mph83%30.24 "HgN/A
8:30 PM70 °FPassing clouds.2 mph83%30.24 "HgN/A
8:00 PM72 °FScattered clouds.3 mph78%30.24 "HgN/A
7:30 PM72 °FPartly sunny.7 mph83%30.24 "HgN/A
7:00 PM72 °FPartly sunny.7 mph83%30.24 "HgN/A
6:30 PM72 °FPartly sunny.8 mph83%30.24 "Hg6 mi
6:00 PM73 °FLight rain. Partly sunny.12 mph78%30.24 "Hg6 mi
5:30 PM73 °FBroken clouds.13 mph74%30.24 "HgN/A
5:00 PM73 °FPartly sunny.13 mph74%30.24 "HgN/A
4:30 PM75 °FBroken clouds.14 mph69%30.24 "HgN/A
4:00 PM77 °FPartly sunny.15 mph65%30.24 "HgN/A
3:30 PM75 °FBroken clouds.14 mph69%30.24 "HgN/A
3:00 PM77 °FScattered clouds.16 mph65%30.24 "HgN/A
2:30 PM77 °FScattered clouds.16 mph65%30.24 "HgN/A
2:00 PM79 °FScattered clouds.17 mph61%30.24 "HgN/A
1:30 PM77 °FScattered clouds.16 mph65%30.27 "HgN/A
1:00 PM77 °FScattered clouds.15 mph65%30.27 "HgN/A
12:30 PM77 °FScattered clouds.14 mph65%30.27 "HgN/A
12:00 PM77 °FScattered clouds.12 mph65%30.27 "HgN/A
11:30 AM77 °FScattered clouds.10 mph65%30.27 "HgN/A
11:00 AM77 °FPartly sunny.9 mph65%30.27 "HgN/A
10:30 AM73 °FPartly sunny.2 mph65%30.30 "HgN/A
10:00 AM73 °FPartly sunny.2 mph61%30.30 "HgN/A
9:30 AM73 °FPassing clouds.2 mph61%30.27 "HgN/A
9:00 AM68 °FPassing clouds.3 mph69%30.27 "HgN/A
8:30 AM64 °FPassing clouds.3 mph78%30.27 "HgN/A
8:00 AM61 °FPassing clouds.2 mph83%30.27 "HgN/A
7:30 AM59 °FPassing clouds.3 mph88%30.27 "HgN/A
7:00 AM59 °FPassing clouds.2 mph88%30.27 "HgN/A
6:30 AM59 °FPassing clouds.2 mph88%30.24 "HgN/A
6:11 AM59 °FPassing clouds.2 mph82%30.24 "HgN/A
6:00 AM59 °FPassing clouds.2 mph82%30.24 "HgN/A
5:00 AM61 °FPassing clouds.3 mph83%30.27 "HgN/A
4:30 AM63 °FPassing clouds.5 mph77%30.27 "HgN/A
3:30 AM61 °FClear.2 mph83%30.27 "HgN/A
3:00 AM63 °FClear.5 mph77%30.27 "HgN/A
2:30 AM63 °FClear.5 mph77%30.27 "HgN/A
2:00 AM61 °FClear.5 mph83%30.27 "HgN/A
1:30 AM63 °FClear.5 mph77%30.27 "HgN/A
1:00 AM63 °FClear.2 mph77%30.27 "HgN/A
12:30 AM63 °FPassing clouds.5 mph77%30.30 "HgN/A
12:00 AM63 °FPassing clouds.5 mph77%30.30 "HgN/A
Weather by CustomWeather, © 2014

See weather overviewHow to use our weather pages